Regional Weather Roundup
Issued by NWS

Home | Current Version | Previous Version | Graphics & Text | Print | Product List | Glossary On
Versions: 1 2 3 4 5 6 7 8 9 10 11 12 13 14 15 16 17 18 19 20 21 22 23 24 25 26 27
000
ASUS45 KCYS 182210
RWRWY

WYOMING REGIONAL WEATHER ROUNDUP
NATIONAL WEATHER SERVICE CHEYENNE WY
300 PM MST SUN FEB 18 2018

NOTE:  "FAIR" INDICATES FEW OR NO CLOUDS BELOW 12,000 FEET
WITH NO SIGNIFICANT WEATHER AND/OR OBSTRUCTIONS TO VISIBILITY.

WYZ001-182300-
YELLOWSTONE NATIONAL PARK

CITY           SKY/WX    TMP DP  RH WIND       PRES   REMARKS
LK YELLOWSTONE   N/A     17  15  92 CALM      29.42R
W YELLOWSTONE  NOT AVBL

$$
WYZ002>013-054>058-071-098>099-182300-
NORTHERN WYOMING

CITY           SKY/WX    TMP DP  RH WIND       PRES   REMARKS
JACKSON        PTSUNNY   28  17  63 S17       29.42F WCI  16
CODY           LGT SNOW   6  -1  73 N16G25    29.68R WCI -12
GREYBULL       LGT SNOW  11   7  84 NW16      29.70R VSB 1   WCI  -6
WORLAND        CLOUDY    11   4  73 N12       29.71R WCI  -3
SHERIDAN       LGT SNOW   7   2  80 NW15      29.80R VSB 3/4 WCI -10
BUFFALO        SNOW       5   0  79 N22       29.67R VSB 1/2 WCI -16
GILLETTE       FOG        6   2  83 N23       29.70R VSB 1/2 WCI -15
HULETT         LGT SNOW   9   3  78 MISG      29.72S VSB 3/4
NEWCASTLE      MOCLDY    19  10  68 NW25G31   29.56S WCI   2

$$
WYZ014>020-022>026-101>103-182300-
CENTRAL WYOMING

CITY           SKY/WX    TMP DP  RH WIND       PRES   REMARKS
BIG PINEY      CLOUDY    28  13  53 N12       29.48F WCI  18
PINEDALE       CLOUDY    27  14  59 NW16      29.48S WCI  14
DUBOIS         NOT AVBL
LANDER         CLOUDY    22  19  89 N12       29.49R FOG     WCI  10
RIVERTON       CLOUDY    19  14  81 NE16      29.50R WCI   4
CASPER         SNOW      10   7  87 N20       29.60R VSB 1/4 WCI  -9
DOUGLAS        CLOUDY    19  11  70 N17       29.59R WCI   4

$$
WYZ021-027>030-104>119-182300-
SOUTHERN WYOMING

CITY           SKY/WX    TMP DP  RH WIND       PRES   REMARKS
EVANSTON       SNOW      27  26  96 N15       29.47S VSB 1/4 WCI  15
FORT BRIDGER   CLOUDY    32  24  72 N20G26    29.49R WCI  20
ROCK SPRINGS   FAIR      38  22  52 N10       29.43S WCI  31
DIXON          FAIR      44  21  40 SW21G29   29.48F
RAWLINS        CLOUDY    41  23  48 NW21G29   29.43S
SARATOGA       FAIR      45  18  33 SW24G37   29.45F
LARAMIE        FAIR      48  14  25 SW31G40   29.45S
CHEYENNE       FAIR      59  10  14 W23G32    29.43F
TORRINGTON     FAIR      42  29  59 N31G38    29.48R
PINE BLUFFS    FAIR      63  10  13 W21G29    29.40F

$$




USA.gov is the U.S. government's official web portal to all federal, state and local government web resources and services.